Theta_e
321 320 321 321 321 321 321 322 323 323 323 323 324 324 324 324 323 325 324 325 324 325 325 325 326 324 324 324 324 325 314 298 299 297 297 299 317 325 327 331 328 328 327 303 303 302 299 299 299 300 300 298 295 296 297 299 296 295 289 287 285 284 286 289 288 288 291 288 288 290 290 289 286 289 290 292 289 288 288 288 288 289 288 291 291 291 292 293
320 320 320 320 320 321 322 322 322 323 323 324 324 324 324 324 325 325 326 325 323 323 324 325 325 325 325 324 326 323 302 300 297 297 297 311 322 326 329 328 328 326 319 303 299 298 298 297 298 300 296 294 297 295 299 295 297 290 285 287 284 284 288 292 292 293 290 288 289 289 290 290 289 288 290 286 284 285 286 286 287 287 288 289 290 290 290 291
320 320 319 320 320 321 321 322 323 323 324 323 324 324 324 325 325 323 322 322 323 323 324 324 325 322 324 324 323 321 303 299 298 294 298 318 322 325 327 328 327 323 305 302 299 300 299 297 298 299 295 294 294 293 297 293 298 291 290 285 285 289 290 291 292 291 292 290 287 287 286 286 286 288 289 284 282 284 283 283 285 285 286 288 289 289 290 290
319 319 319 320 320 320 321 322 322 323 323 325 324 325 325 325 322 323 322 322 323 324 323 323 324 324 325 322 325 304 302 296 292 294 301 320 322 325 326 329 324 309 303 301 299 299 298 299 298 298 294 292 293 294 291 292 291 290 288 284 287 289 289 289 290 290 289 290 287 286 286 285 285 286 287 285 285 282 282 285 286 285 287 288 288 289 290 290
319 319 318 319 319 320 321 321 322 323 323 323 323 324 325 324 325 326 323 323 324 324 323 320 323 322 322 323 318 302 297 289 290 296 302 319 322 324 324 326 323 301 303 300 301 299 299 297 297 294 291 287 290 293 289 293 293 288 285 287 289 290 288 290 290 290 289 288 287 286 286 284 286 285 284 285 283 280 283 285 285 287 287 287 288 288 289 290
319 318 319 319 319 319 320 321 321 322 322 324 325 324 324 324 322 324 325 324 324 323 323 318 317 316 317 317 304 300 294 280 293 297 317 319 320 322 322 325 321 303 303 301 299 298 298 295 296 288 287 288 287 287 287 290 291 287 287 288 289 289 289 290 290 288 289 287 286 284 285 284 283 281 283 283 282 283 286 285 285 285 286 287 287 287 288 286
319 318 318 318 318 319 319 320 320 321 322 323 323 323 324 325 322 322 323 323 323 323 323 321 320 320 316 312 302 298 293 290 294 300 314 319 318 316 320 316 311 302 301 300 298 297 296 295 294 291 290 289 289 289 290 291 293 290 285 286 287 289 287 287 287 287 286 287 284 285 286 284 283 281 283 281 283 284 285 284 285 286 286 286 284 286 286 286
318 318 318 317 318 318 319 320 321 321 322 323 323 323 324 324 321 321 322 322 322 322 323 322 322 322 318 299 296 293 292 290 297 301 313 315 307 304 310 304 302 302 299 295 296 297 297 294 293 293 290 289 288 290 291 290 290 287 286 287 286 287 286 286 286 286 285 285 285 286 284 282 283 283 283 282 283 284 285 285 285 285 283 283 284 285 285 286
318 318 317 317 318 318 319 320 320 320 320 323 324 324 324 322 321 321 321 322 321 320 321 322 319 316 314 300 294 293 289 296 299 300 302 301 300 299 303 302 301 300 297 297 295 295 296 291 291 292 289 290 290 290 288 290 286 287 287 287 287 286 287 286 286 285 286 286 286 284 282 282 284 284 282 283 284 285 285 285 285 285 285 284 284 285 283 284
318 317 317 317 317 318 320 320 320 320 320 320 322 323 324 320 320 320 321 322 320 317 317 317 317 314 303 296 295 290 292 298 300 301 301 301 300 299 302 302 300 299 298 296 297 297 295 293 295 294 292 289 289 287 289 290 286 289 288 288 287 287 288 287 286 284 285 285 286 284 282 283 283 284 279 283 284 284 284 283 283 284 284 284 284 284 284 284
317 317 317 317 317 318 320 320 320 320 319 320 320 320 320 320 320 320 320 322 322 320 316 316 315 309 298 298 292 288 298 300 299 301 301 302 300 298 298 301 302 298 297 296 294 294 295 295 295 295 292 287 290 287 289 288 290 288 287 286 285 286 287 286 286 286 285 285 285 285 283 282 283 280 279 281 283 285 284 282 282 283 282 282 283 284 286 285
317 316 317 317 317 318 319 320 320 320 319 319 320 320 320 320 319 320 320 322 322 321 321 319 314 303 299 297 293 292 299 299 299 301 302 302 300 297 300 300 301 300 298 295 295 295 295 293 292 288 288 290 286 288 286 289 289 287 288 283 282 284 284 283 284 286 285 284 284 283 281 281 280 279 282 283 284 283 283 282 281 282 282 283 284 284 285 286
316 317 317 317 317 318 318 319 319 319 319 318 317 318 320 321 321 321 321 321 323 321 318 319 313 303 299 292 293 299 298 298 300 302 303 303 301 297 301 301 302 301 300 298 295 296 294 293 296 292 290 288 286 283 288 288 287 286 286 284 281 279 280 284 285 285 285 286 284 284 275 276 277 280 281 282 283 283 282 284 283 281 282 283 284 284 285 286
316 316 316 317 317 318 319 320 321 321 319 318 317 317 319 321 321 321 320 321 322 322 321 321 305 301 297 287 299 301 302 300 301 303 300 302 301 300 303 303 302 303 302 299 297 296 296 295 295 292 289 287 286 292 288 286 284 281 282 281 277 275 278 283 284 282 285 286 283 285 276 275 275 279 281 282 284 283 282 282 283 282 282 283 284 284 285 286
316 316 316 316 317 317 317 318 319 320 321 318 317 316 317 319 320 321 321 317 319 322 321 314 302 295 292 292 298 301 317 302 301 299 300 299 298 299 301 301 302 302 301 302 299 299 298 296 295 290 288 289 291 287 282 281 281 281 279 277 275 276 277 280 285 283 282 284 283 281 276 274 276 278 280 282 283 282 282 283 283 282 282 283 282 284 284 286
315 315 315 315 316 317 317 317 318 318 319 318 317 316 316 318 318 319 321 321 319 317 305 301 300 298 294 291 298 309 298 298 298 300 299 299 298 297 299 297 299 302 299 298 301 299 297 295 290 287 287 287 285 281 280 278 279 280 277 277 277 276 278 277 284 282 283 283 282 281 276 278 278 280 280 281 283 282 282 282 282 283 283 283 283 283 284 285
315 315 315 315 315 317 316 318 318 318 317 317 317 314 316 317 316 317 318 316 308 308 305 299 297 299 291 296 301 295 293 297 299 299 299 299 299 298 299 299 297 298 299 298 297 297 294 292 290 287 287 282 281 281 279 278 275 276 276 276 277 275 277 277 280 282 281 281 280 279 277 276 277 279 280 281 283 282 281 282 281 283 283 283 283 282 283 283
314 314 314 314 316 315 315 316 316 316 317 317 313 311 311 317 315 312 310 306 306 302 301 302 295 295 291 297 290 293 296 295 298 298 297 299 299 300 300 297 296 295 294 292 293 291 290 287 287 282 283 282 282 279 277 275 278 277 276 276 277 276 275 277 277 281 281 280 279 277 277 278 278 279 279 280 282 282 281 280 282 282 282 283 282 283 283 283
314 314 314 315 315 315 316 316 316 316 318 318 317 318 318 315 303 304 302 301 298 294 291 292 292 286 282 291 293 294 296 298 298 297 297 298 298 299 298 297 294 293 288 287 288 287 286 285 285 282 278 279 279 278 277 280 278 280 276 275 275 275 277 277 280 282 280 277 278 275 275 277 277 278 279 280 281 282 281 281 281 282 282 282 283 283 283 283
313 313 314 315 315 316 316 316 316 317 318 312 305 308 301 295 295 293 298 299 292 292 291 293 292 292 292 292 294 298 299 300 295 297 299 299 299 297 294 294 292 292 286 283 284 287 286 281 277 276 277 278 279 279 279 280 280 279 277 277 276 276 277 278 279 281 281 278 278 278 276 276 277 278 279 280 280 282 281 281 281 281 281 282 282 283 283 282
313 313 313 314 315 315 316 316 315 316 315 303 302 301 297 292 290 287 289 293 292 292 293 292 294 294 293 294 294 296 293 295 296 296 298 300 297 294 291 290 289 287 284 284 284 288 286 281 279 278 280 279 280 280 280 280 279 279 277 276 276 275 277 280 280 281 281 280 277 277 277 276 277 278 279 279 281 281 280 280 280 281 280 280 281 282 283 283
313 312 313 314 314 315 316 316 313 316 310 302 300 296 294 296 295 294 292 290 293 293 293 293 294 294 295 295 296 295 293 291 295 295 300 300 295 289 289 287 284 283 283 283 281 281 282 279 280 280 281 280 280 281 281 280 279 278 278 276 276 277 278 279 279 279 281 279 277 277 278 277 278 278 280 280 281 280 280 281 281 281 281 281 281 281 282 283
312 312 313 314 314 315 315 316 312 309 297 298 296 294 294 297 296 293 293 293 290 293 293 292 293 291 293 295 295 295 291 288 287 293 295 296 292 291 287 285 284 284 284 282 279 280 280 280 282 282 280 280 281 280 280 280 279 277 276 275 276 277 277 277 278 278 280 279 279 276 277 277 277 278 279 280 280 280 280 281 281 281 282 282 282 283 283 283
312 312 313 313 314 314 316 315 309 302 297 296 295 294 295 294 294 298 291 287 287 291 293 293 292 291 291 293 296 294 292 290 288 291 297 293 289 289 286 285 283 283 281 282 281 282 279 282 282 281 281 280 279 280 279 278 277 277 277 275 276 277 278 277 278 279 277 280 277 276 274 274 276 277 277 279 279 281 281 281 281 281 282 282 282 283 283 283
312 312 312 313 314 316 314 312 300 296 294 293 293 295 295 294 293 295 291 286 287 290 295 294 292 294 295 297 297 295 291 291 291 292 293 295 291 289 288 288 283 280 280 282 282 281 280 282 283 280 279 279 279 279 279 277 276 275 278 278 278 278 277 277 277 276 272 276 276 277 270 271 272 276 277 278 277 280 278 278 280 281 281 281 282 283 283 284
311 311 312 312 313 315 314 300 296 294 294 293 294 295 294 294 293 295 288 277 278 286 291 289 298 293 296 294 294 289 291 287 293 294 297 296 296 290 287 285 284 280 281 280 280 279 281 282 281 279 278 278 279 278 279 278 276 273 277 278 278 278 278 278 277 277 273 274 278 277 272 268 271 276 276 275 277 278 279 276 279 280 280 279 281 282 282 283
311 311 312 312 312 313 301 293 294 299 295 293 295 294 293 295 294 298 291 276 277 287 287 294 295 293 299 293 293 293 282 286 295 293 294 296 293 295 286 282 284 285 283 282 279 279 280 280 280 279 278 278 278 278 279 277 273 276 277 279 279 278 279 278 277 277 275 275 279 275 274 269 272 273 276 275 277 276 275 277 279 279 279 278 279 280 280 281
310 311 311 313 310 307 294 296 296 294 296 296 295 294 294 293 294 294 281 272 275 289 287 289 294 297 296 294 293 288 289 290 286 290 294 294 293 290 287 282 282 282 283 280 277 280 280 280 279 279 277 278 277 279 281 279 275 277 279 280 280 279 279 278 277 277 276 275 273 274 276 272 269 273 274 275 277 277 275 275 277 280 281 281 282 282 281 281
310 311 311 312 311 308 299 295 290 291 294 294 293 294 295 296 292 288 279 274 285 284 298 290 300 294 290 292 289 287 288 289 285 289 292 292 294 289 284 283 281 284 283 281 279 280 282 281 281 280 277 277 279 279 279 281 277 281 280 280 279 279 278 278 276 277 274 271 268 272 273 268 269 272 275 275 277 275 275 277 278 279 280 280 281 281 281 281
310 310 310 310 303 297 295 292 293 294 293 293 293 295 296 293 289 282 273 272 285 280 290 290 290 287 286 284 285 287 288 286 287 288 289 285 290 290 288 289 284 284 283 284 281 280 282 286 286 280 280 281 280 279 280 280 280 280 281 280 278 276 276 275 275 273 271 265 269 273 275 274 269 272 276 277 277 274 276 276 277 277 278 280 280 280 282 281
310 309 308 306 295 293 293 290 293 294 293 293 295 296 294 285 278 271 271 277 285 284 287 284 285 286 282 283 282 285 284 283 286 285 284 286 286 284 285 286 285 279 278 279 281 280 280 280 281 281 284 282 281 281 280 280 281 281 278 277 278 278 273 274 267 267 267 262 267 273 274 274 268 271 274 276 274 275 277 277 277 277 278 279 279 281 281 281
309 309 307 299 299 294 294 289 293 295 293 293 295 290 289 285 282 277 276 287 280 281 281 282 283 283 282 281 280 282 282 282 283 283 280 279 278 280 279 278 278 277 274 273 279 280 280 281 281 281 285 281 279 279 279 278 278 278 275 276 271 265 265 269 260 269 264 266 275 273 274 271 272 274 274 274 276 276 277 279 279 278 279 279 280 281 281 281
309 308 306 301 298 290 292 294 293 294 295 296 290 288 282 276 274 274 276 276 280 281 282 285 283 283 282 280 280 281 282 282 283 282 282 280 278 278 280 280 279 279 275 278 276 275 279 279 280 280 281 282 279 277 275 277 276 275 274 271 263 262 257 261 256 260 263 269 274 274 275 272 273 275 276 277 278 279 279 278 278 279 279 280 280 280 281 281
308 305 296 298 296 295 295 295 294 293 296 294 289 288 283 281 275 286 275 274 279 281 284 282 283 282 280 281 282 281 281 284 282 281 280 277 275 275 277 279 279 279 272 273 275 272 272 275 279 279 279 281 279 278 279 278 277 277 277 276 272 263 264 265 262 267 266 269 271 271 269 265 272 275 279 277 277 277 276 277 277 278 278 278 279 279 279 280
307 297 295 294 292 293 294 294 293 296 292 289 286 281 278 275 274 275 276 277 279 281 286 282 283 280 279 278 280 282 282 281 281 279 279 275 274 274 277 278 279 279 278 276 276 273 278 275 280 281 281 280 279 280 279 278 276 276 276 274 272 270 269 267 261 262 261 263 265 269 270 272 275 278 279 278 276 278 277 277 278 280 279 278 279 280 281 281
305 297 295 292 294 293 292 296 293 296 292 288 285 281 277 275 278 277 278 282 283 284 281 282 278 279 277 277 279 279 286 282 281 277 275 276 278 278 280 279 279 280 277 275 276 271 275 277 280 279 282 280 280 280 279 280 273 278 275 269 274 276 272 265 266 265 265 262 264 265 273 273 275 277 279 278 278 278 276 277 278 279 279 277 279 280 280 280
294 294 294 294 290 292 293 293 295 290 290 286 283 278 274 274 279 277 286 284 284 283 282 279 278 279 276 276 277 276 280 282 281 278 275 279 276 279 278 279 282 279 281 277 274 276 274 275 279 280 280 281 278 279 279 279 279 276 272 276 277 274 270 270 267 259 256 263 264 267 270 271 273 270 275 277 277 277 277 276 275 277 277 278 280 280 280 281
295 292 295 292 293 293 294 293 295 290 288 286 279 285 275 277 282 283 282 283 283 281 278 276 279 283 276 278 278 278 280 281 280 274 275 277 275 281 280 278 281 281 279 280 276 276 278 275 279 280 279 280 279 281 279 281 281 278 279 279 277 268 270 266 263 263 264 260 260 266 268 270 273 274 275 275 276 277 277 277 277 279 279 279 280 280 280 280
290 290 289 294 294 293 294 292 291 287 285 284 275 283 278 278 283 281 283 283 281 279 281 278 276 279 280 277 279 278 278 279 278 274 275 277 276 281 279 279 280 280 279 280 276 276 276 272 275 279 279 278 279 276 273 274 278 276 277 280 277 274 269 266 266 264 265 262 263 264 265 269 274 272 274 276 276 276 275 276 277 278 279 279 279 280 280 281
290 288 284 297 293 291 294 293 290 287 286 283 277 275 278 279 284 283 281 284 281 281 280 280 277 275 277 278 280 280 278 277 277 277 277 277 279 281 281 279 278 279 279 279 278 278 275 276 271 277 276 279 276 273 274 275 274 274 274 271 273 271 274 274 268 267 267 259 260 260 265 268 273 275 276 277 276 276 277 278 278 279 279 279 279 280 281 281
287 285 290 296 292 292 293 292 286 279 276 275 273 275 277 280 282 282 283 282 280 282 283 280 280 278 276 276 279 278 278 276 276 278 277 277 278 277 280 279 279 278 279 279 276 277 272 273 274 270 274 273 274 278 277 275 274 274 275 275 275 271 270 269 267 268 261 267 262 260 268 271 277 277 278 277 277 276 276 278 279 279 279 279 280 280 280 281
287 281 286 295 291 292 290 285 278 274 277 275 277 278 281 289 280 281 282 280 281 280 281 282 281 277 275 277 278 277 276 276 277 276 277 278 278 278 279 277 279 279 278 276 277 279 277 269 270 272 272 276 276 277 277 276 274 274 275 275 274 272 268 261 267 267 266 268 264 261 263 270 277 277 277 276 275 277 277 277 278 279 279 279 280 280 280 280
280 286 291 294 294 293 288 279 280 278 275 277 281 280 280 282 280 282 282 282 280 281 277 279 282 280 280 279 275 274 276 276 277 278 277 275 277 278 279 277 279 280 279 277 280 278 284 268 270 267 267 273 275 273 271 274 276 270 270 268 273 274 273 271 268 267 265 265 265 264 262 272 276 276 277 277 276 276 277 276 278 279 280 280 279 280 280 281
282 283 288 294 294 293 286 280 277 274 274 278 278 278 281 281 281 281 281 281 278 281 279 278 281 283 281 278 276 277 278 277 277 276 277 275 277 280 278 278 279 278 279 279 276 277 274 273 272 266 264 265 268 271 273 272 270 271 273 274 274 274 270 266 263 263 269 266 267 267 263 263 278 278 276 278 277 277 278 279 278 279 280 279 279 280 281 281
284 287 284 288 292 290 284 279 278 274 277 274 276 277 278 279 281 282 282 282 281 279 281 280 282 281 279 278 276 276 274 279 276 276 277 277 278 280 278 276 278 279 279 281 286 281 274 272 271 273 271 268 268 267 269 270 271 274 275 275 275 274 271 271 271 264 267 264 267 264 265 275 276 276 279 277 277 279 279 279 280 279 279 280 281 281 281 281
283 285 282 283 287 286 283 281 281 278 276 273 276 277 277 277 282 281 281 281 281 281 281 282 280 279 278 279 276 275 276 276 277 274 275 275 276 278 278 275 277 277 283 286 283 277 269 271 272 270 267 270 272 272 273 278 272 272 274 273 275 275 274 271 267 265 269 262 268 271 272 276 279 280 278 278 277 278 280 281 281 281 280 280 280 281 281 282
279 279 280 283 280 285 278 278 278 279 280 279 278 277 277 277 279 279 282 280 282 281 281 281 279 281 279 278 276 277 278 278 276 276 275 273 275 276 274 277 276 281 286 285 282 273 268 271 271 271 271 276 275 273 274 278 274 272 274 275 275 274 274 273 271 271 271 268 271 272 274 272 278 279 279 279 280 280 280 280 281 280 280 281 282 280 284 282
285 280 278 281 286 284 280 281 277 279 279 280 278 278 277 277 278 277 280 282 282 280 280 280 280 281 280 280 279 277 277 276 275 276 277 275 276 277 275 277 277 281 281 277 277 276 269 272 272 272 270 273 274 275 275 273 275 274 273 274 274 275 273 273 273 275 274 272 275 274 274 274 278 279 280 280 281 281 281 281 282 281 280 280 280 280 281 281
284 278 278 282 283 277 279 280 277 280 279 276 280 278 277 277 278 278 279 279 280 280 281 278 280 280 278 281 281 277 278 276 275 277 275 274 274 274 274 275 278 276 272 274 273 272 274 268 270 273 271 274 275 274 273 275 272 273 275 275 276 274 274 275 276 275 275 276 278 277 275 276 279 280 282 283 283 280 281 280 279 280 281 280 280 280 280 281
281 282 280 279 278 274 277 278 277 277 279 282 280 278 279 278 279 280 280 279 278 280 282 282 281 279 280 279 278 279 279 282 281 277 278 277 274 276 273 277 276 275 273 273 274 274 275 271 278 268 269 268 269 273 271 273 270 270 275 275 275 275 275 275 275 275 274 274 276 276 275 276 281 281 281 282 280 278 279 279 280 280 280 280 280 280 281 281
286 287 283 284 278 277 279 278 280 277 279 280 278 279 280 279 279 279 279 281 280 279 280 281 280 280 279 279 281 282 281 281 281 283 280 279 278 278 278 277 277 272 274 272 272 271 274 271 269 267 271 269 270 269 271 267 269 269 272 272 273 272 269 272 274 276 274 275 274 274 272 275 281 279 278 278 278 278 279 279 280 282 281 280 280 281 281 282
284 286 280 279 278 283 282 277 280 279 280 278 279 280 282 281 280 280 280 280 280 282 280 279 281 280 280 280 280 281 282 280 281 280 280 279 280 278 279 278 277 276 273 272 272 272 270 269 272 267 272 265 268 267 268 267 269 272 273 273 275 275 274 275 276 276 278 277 274 272 276 279 278 279 281 279 278 278 278 279 280 280 281 280 281 282 282 282
Wind_Speed
12 12 12 12 12 11 10 10 9 8 6 6 6 6 5 4 5 6 6 6 6 6 6 7 6 5 4 5 6 5 1 7 20 16 21 13 15 23 23 21 22 17 11 5 12 12 7 11 11 7 11 9 7 6 3 10 3 6 8 6 9 2 5 2 3 3 5 6 2 7 4 14 6 2 2 1 10 7 4 7 2 5 4 0 1 2 2 3
11 11 11 10 10 9 9 8 8 7 6 7 7 7 7 7 5 6 7 8 9 9 7 6 5 4 5 5 4 4 4 12 18 22 18 17 28 26 25 22 21 17 3 14 8 4 11 7 10 16 9 8 6 5 3 4 5 8 4 6 8 1 1 1 5 9 7 5 5 3 1 4 6 3 1 5 4 3 6 3 2 2 2 2 2 2 3 3
12 11 11 10 9 9 8 8 8 8 9 7 7 6 7 6 6 7 9 10 11 11 10 8 2 3 3 3 2 1 1 4 22 21 17 25 27 26 26 23 20 13 10 6 4 10 10 4 7 18 8 10 11 5 10 3 6 8 8 11 7 2 6 8 7 7 7 10 9 9 4 8 4 2 2 5 4 7 7 2 3 3 1 1 2 3 3 3
13 12 11 10 9 9 9 9 10 10 10 9 7 7 7 7 9 8 8 9 11 13 12 7 7 7 5 2 2 1 3 6 15 8 14 22 27 25 24 21 19 6 9 10 5 7 4 12 14 15 8 14 7 11 13 7 6 3 7 5 5 4 10 5 11 9 7 10 8 8 5 9 5 3 1 6 9 5 2 1 2 2 1 1 2 4 3 3
12 12 11 10 10 10 11 11 10 10 9 9 9 9 8 9 9 8 8 8 8 12 11 9 7 5 5 4 4 3 4 8 4 7 14 23 24 24 22 18 17 6 9 4 9 7 12 9 13 12 9 4 6 14 6 11 7 6 5 4 8 8 12 4 8 8 8 7 11 5 9 4 2 8 6 2 9 1 1 0 1 3 2 2 2 3 2 3
11 11 12 12 12 11 11 11 11 10 9 8 8 8 9 9 10 10 9 8 8 7 7 16 19 17 13 6 4 3 4 4 5 10 17 22 24 22 19 16 13 11 13 13 8 8 15 7 17 6 5 8 7 11 2 4 3 13 6 7 7 5 11 1 3 3 6 5 6 4 2 3 5 4 2 5 5 1 3 2 3 3 4 4 2 2 1 2
12 13 13 13 13 12 11 11 10 9 9 9 8 8 7 7 8 10 9 10 9 6 6 7 7 8 10 15 15 23 17 4 2 11 17 20 22 19 17 12 11 15 14 14 10 11 12 19 20 10 13 14 11 15 12 13 13 16 7 6 8 10 10 6 8 8 8 12 6 4 2 7 2 9 1 4 1 1 1 3 1 1 2 2 1 1 3 3
14 14 14 13 12 11 10 9 8 8 8 7 7 8 8 8 9 9 9 9 10 7 1 5 6 4 5 2 5 12 13 5 11 9 15 19 18 15 14 9 13 12 15 7 8 12 17 16 16 9 12 11 4 13 13 19 11 12 11 7 5 9 6 8 10 11 11 8 6 8 10 2 3 4 1 2 1 3 3 1 1 1 1 1 1 1 2 3
15 14 14 13 12 10 9 9 9 8 7 6 7 7 8 9 9 9 8 9 11 9 9 6 2 0 3 3 2 18 8 4 7 10 12 14 15 12 13 10 9 14 6 7 4 1 6 1 4 2 11 15 5 14 0 15 8 4 9 6 7 6 7 8 9 9 10 5 9 15 7 4 6 5 4 1 2 3 4 4 2 1 1 2 3 2 2 2
14 14 13 12 11 10 9 8 8 8 7 8 6 6 7 9 9 9 7 7 11 16 16 13 7 12 10 2 8 17 3 5 6 9 11 11 12 13 17 11 9 11 10 9 11 9 10 5 17 13 16 11 4 5 4 10 8 7 12 11 13 9 8 3 8 3 2 3 2 9 3 0 2 2 1 2 2 3 4 4 2 1 3 3 3 2 3 3
14 13 12 11 11 10 9 9 9 9 9 9 9 8 7 8 9 9 9 6 6 7 12 17 13 18 9 9 17 9 2 7 4 9 11 12 13 12 11 10 9 6 9 10 10 6 16 16 10 7 5 5 7 7 10 8 12 10 13 12 10 8 7 5 8 7 4 2 6 12 6 3 7 4 2 2 5 2 2 4 4 2 4 3 3 3 2 4
14 13 12 11 10 9 8 8 8 9 11 12 13 11 8 7 8 9 8 5 4 6 4 3 9 6 11 21 14 4 5 5 5 7 6 13 9 4 4 6 6 6 7 9 7 5 1 6 2 2 9 6 15 11 8 6 10 9 14 13 6 5 5 4 2 2 3 2 4 3 5 6 6 1 3 5 4 4 3 3 4 4 3 3 3 3 3 2
13 12 11 10 10 9 9 8 8 8 10 12 13 14 10 8 6 8 8 8 6 1 8 6 2 3 5 17 3 6 3 3 5 9 18 13 8 2 4 6 8 7 6 10 6 4 8 5 14 19 4 5 9 2 6 5 6 4 5 9 5 3 6 7 1 1 2 1 4 1 1 5 3 4 7 6 3 4 3 0 1 1 3 3 2 3 1 1
13 12 11 11 10 9 8 8 8 8 10 11 11 13 12 8 7 6 7 8 5 4 5 9 8 8 16 3 2 2 5 0 7 18 13 12 12 9 11 10 6 6 4 8 8 9 11 8 15 12 4 4 7 7 11 2 3 5 2 5 2 5 2 3 1 2 3 1 2 1 3 3 5 6 6 5 1 2 1 1 2 4 4 2 1 1 1 0
14 13 13 11 10 9 9 9 9 9 9 10 11 12 13 8 7 7 8 11 12 3 6 5 4 5 9 1 5 7 5 1 14 6 5 11 9 7 12 11 9 7 5 10 4 7 7 9 13 10 7 5 11 6 4 2 3 2 1 5 5 6 2 3 3 2 2 1 5 5 4 2 4 5 6 4 0 1 1 0 1 2 2 1 1 1 1 1
15 14 13 12 10 9 8 8 7 7 8 9 11 10 16 11 8 9 9 4 7 7 1 8 8 11 13 5 1 6 5 10 10 6 2 4 3 3 6 5 2 9 12 6 6 5 7 6 14 3 4 5 9 6 5 5 5 4 6 1 2 3 2 1 0 1 3 1 4 2 2 1 3 6 6 4 1 2 0 0 1 1 2 3 2 2 1 1
14 14 12 11 10 8 9 7 7 7 6 6 7 7 10 19 13 11 8 7 5 5 10 4 1 3 8 4 2 6 4 3 4 4 7 2 2 4 4 6 5 4 5 10 12 10 10 10 2 5 5 6 1 2 7 9 5 4 3 3 1 2 1 1 3 3 5 2 1 6 5 3 2 2 4 5 1 1 2 1 2 1 1 2 2 2 2 2
15 14 12 12 9 9 9 8 9 8 7 5 4 3 2 11 26 21 11 6 3 6 5 6 2 6 4 6 4 6 3 5 8 8 5 5 1 6 8 6 2 3 6 4 8 11 5 6 7 5 3 8 10 8 7 2 1 2 3 5 3 1 1 1 1 3 3 6 6 3 5 2 3 3 4 6 0 0 2 4 3 2 3 2 2 2 2 3
15 14 12 11 9 9 8 9 9 9 6 5 1 3 3 4 4 12 14 8 9 9 10 12 10 8 2 6 6 7 4 5 4 7 11 10 4 2 4 3 4 6 2 6 4 6 5 5 5 10 9 10 9 5 4 1 2 1 4 3 3 5 1 1 1 1 2 2 4 1 3 3 4 4 5 5 1 1 4 3 2 1 1 2 1 1 2 3
15 14 12 10 9 9 9 9 11 8 3 4 2 2 2 4 9 7 9 16 12 8 5 1 2 3 2 5 5 7 4 4 7 10 10 3 5 8 8 4 5 11 7 4 6 7 1 12 7 1 4 5 5 3 4 2 2 4 5 6 3 3 1 2 2 3 1 2 1 1 3 3 5 6 6 5 2 1 1 4 3 2 3 3 2 2 3 4
15 15 13 10 9 9 9 10 10 7 4 5 4 4 1 2 8 3 2 7 3 4 7 3 5 6 4 2 4 6 4 3 6 12 7 5 2 4 7 6 8 10 6 3 4 2 6 13 7 2 3 3 4 5 1 5 4 5 7 6 2 2 2 0 0 3 3 1 1 1 2 3 6 5 6 4 1 5 5 4 4 4 3 3 3 4 4 5
16 15 13 10 10 10 9 9 11 3 8 5 7 7 3 1 0 2 5 7 5 4 7 3 0 5 2 2 2 2 2 6 16 16 10 10 7 6 6 9 6 7 5 4 4 7 12 8 4 5 3 0 4 6 6 6 6 3 7 4 6 2 2 3 2 4 3 2 2 1 1 4 6 6 5 4 5 4 4 5 5 5 5 4 4 5 5 4
16 15 14 11 12 9 8 5 10 10 6 8 6 5 3 0 2 2 2 9 5 2 5 5 8 5 5 2 1 2 6 9 3 9 10 7 6 9 1 7 9 4 7 6 5 2 9 5 6 5 2 5 6 8 6 8 8 5 1 1 1 1 2 1 2 4 4 2 1 2 1 4 4 4 5 7 4 4 4 5 5 5 5 6 7 6 5 5
16 15 12 13 12 10 6 4 2 11 7 6 8 3 1 1 2 0 3 4 4 4 2 1 2 1 4 3 3 6 7 2 2 13 8 4 3 1 6 6 9 8 8 8 8 14 6 2 3 3 7 7 7 8 11 7 5 3 5 4 3 1 1 1 2 4 3 1 4 3 2 4 2 3 4 4 3 4 3 3 5 5 5 4 4 5 5 6
16 16 15 15 13 8 3 5 10 1 1 3 4 0 0 1 1 0 5 1 5 2 2 0 3 2 1 2 3 0 0 1 3 3 3 3 3 3 2 1 5 4 2 0 7 12 6 4 1 4 5 6 7 8 6 2 4 3 1 2 1 0 2 3 4 5 4 2 1 2 2 2 3 4 8 7 4 5 2 4 7 6 5 5 6 7 6 5
16 16 15 17 15 6 1 6 1 2 4 3 1 0 0 0 1 0 6 5 4 4 2 6 1 3 2 5 5 1 1 5 2 2 1 1 4 2 1 4 1 3 3 3 7 5 2 4 6 3 5 5 6 5 1 1 3 4 2 2 1 1 1 2 5 2 2 1 1 1 1 2 2 4 4 3 1 6 7 3 8 6 5 4 6 6 6 6
15 15 16 14 15 3 3 1 1 1 2 0 0 0 0 1 0 1 1 5 6 2 3 2 2 2 2 2 0 0 1 1 3 2 5 5 3 1 5 3 3 2 2 1 3 4 3 7 8 7 5 3 4 7 1 2 3 1 0 2 1 3 2 1 2 2 2 2 3 4 2 1 2 3 3 2 1 5 5 4 4 3 3 4 5 5 5 5
16 15 15 12 13 9 2 6 3 1 1 0 1 0 1 1 2 1 5 4 2 2 2 4 1 2 3 4 7 5 1 2 2 4 4 6 1 6 10 1 3 1 2 3 8 1 3 4 5 5 3 6 5 1 2 1 3 2 1 1 1 1 1 1 2 2 0 1 5 5 2 1 3 5 2 1 1 3 4 3 2 2 1 1 1 2 2 4
15 16 14 11 6 11 8 4 4 2 0 0 0 1 1 1 2 5 3 4 1 3 2 1 2 1 6 4 6 2 1 4 3 2 6 2 9 3 7 3 4 7 6 4 7 1 1 1 1 2 3 4 3 2 1 1 3 1 2 1 2 2 2 2 3 4 4 3 3 4 1 1 5 4 3 1 1 5 5 4 4 4 3 3 3 3 4 4
15 16 16 11 2 6 5 4 4 0 1 1 1 1 1 2 3 2 3 3 0 1 1 3 3 4 3 2 3 7 8 5 2 5 6 3 7 8 4 1 3 6 8 10 9 4 0 3 4 4 2 1 2 2 1 0 1 2 3 2 2 4 3 2 5 2 3 1 4 1 0 1 2 3 6 4 4 4 4 3 4 4 5 6 6 5 5 4
13 14 16 10 6 1 1 3 1 0 1 1 1 1 1 7 3 5 3 2 2 1 1 4 1 5 5 4 3 5 3 4 7 4 4 7 9 6 4 1 4 5 5 5 6 4 2 1 1 1 0 2 0 0 3 1 1 2 1 2 2 1 6 2 4 4 1 4 3 2 0 1 0 4 5 7 3 3 5 4 4 5 5 5 4 4 5 5
10 10 13 10 1 1 2 3 0 0 1 1 1 3 3 1 8 6 3 4 1 2 2 2 1 0 2 1 3 5 3 4 3 5 5 3 5 8 8 2 3 2 4 2 1 2 3 3 2 5 1 5 2 2 1 3 5 5 5 5 3 3 5 2 4 2 1 2 0 1 2 1 5 7 2 3 6 5 5 5 6 5 5 6 6 6 5 4
8 6 9 8 4 3 2 0 1 1 1 1 3 3 3 6 2 2 1 2 0 1 0 1 1 2 0 2 3 3 2 4 3 3 2 1 5 1 1 3 2 1 3 0 1 4 2 2 5 4 3 1 2 2 2 1 3 4 1 2 4 3 3 1 3 2 4 6 3 0 1 2 4 7 5 5 7 8 7 7 5 5 5 5 5 5 5 5
6 5 5 3 6 3 1 1 1 1 1 2 2 4 8 8 1 1 1 1 1 2 3 0 1 0 4 2 1 1 4 1 2 2 3 0 5 3 5 3 4 3 3 1 1 2 1 2 3 3 1 3 3 3 0 0 1 0 1 1 3 6 2 1 1 1 2 6 6 4 1 3 2 3 1 8 4 4 4 4 4 4 5 4 5 5 5 4
4 6 5 1 2 3 2 0 2 1 1 4 10 6 7 1 1 3 1 1 1 1 0 1 1 2 3 3 2 1 1 0 2 2 7 4 2 1 3 6 5 2 1 2 0 2 1 2 1 1 1 1 2 0 1 1 0 1 1 3 6 0 3 1 3 2 2 3 6 1 3 3 3 1 4 1 2 4 4 5 4 6 5 4 4 4 4 4
3 1 1 2 2 2 1 2 2 1 2 6 9 8 4 3 1 1 1 1 1 1 1 2 3 2 1 1 1 2 3 0 3 3 2 3 1 0 1 1 2 3 2 1 0 1 1 1 1 6 2 1 1 0 1 1 1 0 1 0 2 2 7 5 1 1 1 3 5 1 7 4 7 2 1 2 3 5 4 5 5 6 6 3 4 5 5 5
2 2 4 3 2 1 1 2 1 2 7 7 9 2 2 1 1 1 2 1 0 2 2 2 1 1 1 0 1 3 1 2 1 2 1 0 1 0 2 2 1 1 1 1 1 0 2 2 1 0 0 1 1 1 0 0 0 1 1 2 1 2 3 3 1 2 4 1 4 2 2 7 5 4 1 2 3 6 5 5 4 5 5 5 7 5 5 5
1 2 1 2 2 1 0 1 1 6 7 9 6 4 0 2 0 0 0 0 0 1 3 1 0 1 1 1 1 1 3 2 3 2 1 0 1 0 0 1 1 2 2 2 1 1 1 1 1 0 1 4 3 0 2 0 0 1 0 2 1 0 0 4 3 2 2 3 5 7 4 6 4 6 1 3 3 5 6 5 4 6 6 6 6 7 7 5
2 2 2 2 0 1 0 1 6 3 5 11 1 3 1 0 0 0 2 3 0 1 1 1 1 1 1 0 1 0 1 1 0 1 2 0 1 2 1 0 0 1 3 1 2 1 1 1 2 0 1 2 2 3 1 3 1 0 1 1 0 1 0 1 1 3 5 2 5 7 4 3 5 3 6 4 5 6 4 4 5 7 7 7 6 6 6 6
1 1 2 0 2 1 1 3 7 10 9 7 2 1 1 1 0 1 1 1 0 1 0 1 1 2 1 0 1 1 2 2 1 0 1 1 1 1 0 4 0 4 5 2 2 0 0 0 0 1 2 1 1 2 2 1 0 3 2 2 1 1 1 3 1 1 3 3 2 1 7 6 5 5 6 6 5 6 5 5 6 6 7 7 7 7 6 6
1 3 1 1 2 1 2 12 14 9 8 0 2 4 0 1 1 0 1 1 0 2 1 2 3 1 3 2 0 0 0 2 1 1 0 0 1 0 0 0 1 2 3 1 4 2 1 1 1 2 2 0 1 0 1 2 3 1 0 1 2 1 0 0 4 2 2 2 2 2 8 8 10 2 7 6 6 4 6 5 5 6 7 7 7 7 7 6
1 1 2 1 2 2 4 10 5 1 6 4 2 1 1 2 2 0 1 0 1 0 2 3 1 3 1 1 1 1 1 1 1 1 0 1 0 1 0 3 2 1 1 1 0 1 0 2 2 2 1 1 0 0 0 2 2 1 2 2 1 1 3 2 1 2 1 1 4 2 0 10 6 4 5 4 4 5 4 2 4 6 7 7 8 7 7 6
3 0 1 3 2 3 11 7 2 6 4 1 2 1 2 1 2 1 0 1 0 1 2 2 0 2 1 0 1 1 1 1 0 0 0 0 0 1 1 1 3 1 1 1 0 0 3 1 1 3 3 3 1 1 1 3 0 1 1 0 0 1 1 2 2 4 3 0 1 1 2 10 6 2 5 5 4 4 5 4 5 5 6 7 7 7 6 5
1 0 2 0 1 2 3 1 2 1 1 1 2 0 2 1 1 1 0 0 0 0 1 1 0 0 2 1 2 1 1 0 1 2 0 1 1 1 2 4 1 0 2 0 2 0 0 0 2 1 2 2 1 1 0 0 1 1 2 2 2 2 4 2 3 1 1 7 6 7 5 5 2 1 2 1 2 4 5 5 2 5 7 6 6 6 5 5
2 1 1 6 7 5 2 3 9 6 1 4 1 4 0 1 1 0 1 0 0 1 1 0 0 1 2 1 2 1 1 0 0 1 1 1 1 1 3 3 4 1 2 3 1 0 0 1 1 0 1 1 3 3 2 2 3 3 0 1 1 5 7 1 1 2 1 2 3 2 7 10 5 4 4 4 4 6 6 5 6 5 7 8 6 6 6 4
1 1 4 5 8 8 6 2 6 8 8 4 4 0 1 1 0 1 3 0 0 0 0 2 1 2 2 1 2 1 1 1 0 1 1 1 1 1 2 5 3 1 2 3 1 1 1 0 1 3 3 5 4 2 1 2 1 1 2 4 4 2 2 4 5 3 5 3 6 10 7 9 15 10 4 5 4 6 10 9 8 7 5 5 6 6 6 5
1 3 1 0 4 8 3 3 3 4 5 4 3 4 1 1 1 1 3 0 1 0 1 1 1 2 1 2 1 1 1 0 1 2 0 2 1 1 4 1 3 1 3 0 1 2 2 1 2 2 5 6 3 6 3 3 4 4 3 5 6 6 6 7 7 7 6 6 9 6 3 2 13 9 7 7 8 7 7 6 7 6 6 6 6 5 6 5
1 1 1 1 1 0 2 2 3 6 4 2 1 1 4 3 0 2 1 0 0 0 1 0 1 1 5 3 4 2 0 0 1 1 1 0 1 1 0 1 1 3 3 0 1 1 2 1 0 1 4 7 7 6 2 1 4 4 5 5 7 8 7 10 9 7 7 6 12 2 2 4 12 8 10 11 9 8 9 10 8 6 7 8 6 6 6 6
3 2 1 1 1 0 0 1 4 7 6 2 2 2 3 4 5 4 3 1 1 1 1 1 4 5 3 1 1 1 3 1 2 0 3 2 3 1 0 1 0 3 1 0 1 0 2 1 2 1 4 7 8 2 2 7 2 2 8 9 8 9 14 14 12 6 10 12 11 10 7 15 17 16 16 16 9 6 7 5 5 7 8 6 5 6 6 6
1 2 1 4 6 4 0 2 2 3 4 0 3 4 6 7 6 1 1 3 2 1 1 1 3 4 2 2 2 2 6 2 2 2 4 4 0 1 3 3 2 1 1 1 0 1 1 1 3 1 2 5 2 1 1 4 4 5 7 7 7 7 7 11 6 6 5 10 15 14 13 18 21 8 9 10 5 4 4 6 7 7 6 6 6 6 7 6
0 0 3 7 3 1 1 1 1 2 2 1 2 1 3 4 4 5 2 0 1 4 5 3 6 5 1 2 0 0 1 2 3 1 7 5 1 5 2 1 5 3 0 1 0 2 0 2 2 1 3 5 2 0 1 2 3 6 10 7 7 6 8 6 8 8 7 12 1 0 5 11 13 2 4 5 4 4 5 6 7 7 6 5 6 8 6 6
1 0 2 2 3 1 0 0 0 2 1 4 3 4 3 9 3 7 3 1 1 0 2 3 6 7 1 2 3 1 1 2 2 1 5 4 5 5 3 2 2 5 4 3 0 1 1 2 0 0 1 5 3 1 7 6 3 4 7 7 13 10 5 1 4 3 10 4 3 6 11 5 3 2 1 2 2 4 5 5 6 7 7 6 7 8 7 6
Wind_Direction
4 2 358 358 358 357 358 357 352 352 350 346 346 348 352 336 342 338 347 351 337 325 315 310 291 278 249 241 227 246 14 41 45 31 21 357 328 324 331 331 336 333 335 33 29 52 33 38 27 2 46 48 326 36 321 40 2 42 54 97 66 128 66 182 154 157 138 119 119 94 108 114 116 223 158 104 37 63 56 63 352 26 26 256 252 218 238 267
4 1 358 1 0 358 354 351 346 351 354 359 355 348 342 349 339 348 352 354 350 337 329 313 285 248 235 247 230 194 90 37 40 18 16 335 343 337 333 334 342 342 351 44 40 53 74 38 54 52 43 44 327 32 345 21 23 60 91 64 102 66 332 102 109 110 121 125 129 116 19 79 125 138 188 81 20 14 56 35 26 38 342 346 312 301 303 311
3 1 0 1 0 359 354 351 351 357 4 359 356 342 342 330 355 5 5 359 342 337 332 324 261 195 204 225 239 325 19 334 36 9 336 340 337 336 334 334 345 6 62 102 33 75 85 111 85 74 33 71 4 43 46 351 49 25 93 85 61 109 78 66 87 89 97 125 102 88 45 73 354 65 32 98 102 45 50 1 7 36 348 303 291 296 283 319
1 359 358 1 2 1 360 357 1 360 359 353 350 354 351 346 354 359 2 1 350 338 345 29 104 106 119 118 129 66 83 20 47 326 322 335 334 332 333 333 344 2 80 57 87 77 114 81 58 77 68 59 28 49 49 341 78 353 62 78 132 111 88 45 85 93 97 100 99 93 93 66 27 28 87 167 68 24 10 290 137 102 157 248 263 276 288 282
358 357 357 3 5 4 1 4 360 359 354 355 355 356 350 348 342 340 351 5 358 342 356 81 78 95 112 137 90 85 81 54 343 331 312 328 332 331 332 332 338 46 83 137 68 55 59 61 84 52 61 82 25 64 22 45 70 106 71 81 102 98 79 77 86 91 97 87 93 82 81 119 188 43 28 72 105 154 238 291 176 188 214 206 244 258 228 264
359 359 1 3 4 6 3 359 359 356 353 349 350 351 350 342 346 341 343 347 3 340 342 91 95 89 78 81 101 75 92 77 311 317 322 325 328 332 328 333 332 54 64 52 81 53 67 9 71 29 41 60 35 75 12 43 269 91 26 52 55 76 106 53 66 65 95 88 82 79 96 104 78 93 2 67 103 214 231 207 181 189 199 213 203 178 220 229
4 4 5 3 2 360 359 355 353 353 350 348 350 352 334 341 346 346 342 348 343 336 262 218 107 85 89 81 74 74 78 131 281 288 322 326 326 328 330 331 7 53 57 65 57 75 86 81 79 92 93 82 53 84 70 71 58 88 96 88 59 81 86 96 93 86 84 92 84 101 122 83 118 78 302 65 263 196 223 224 236 225 245 215 127 182 192 213
6 4 2 1 358 355 349 344 340 341 341 346 343 341 333 338 350 352 347 347 351 354 287 227 233 321 355 36 39 54 57 351 312 308 327 327 329 334 330 13 9 54 51 54 90 97 87 77 96 102 52 94 182 96 106 75 49 88 90 96 107 77 95 94 93 85 86 90 120 90 76 78 89 117 87 6 297 297 277 274 287 354 160 171 171 251 242 257
5 2 359 355 353 349 344 340 352 352 352 341 341 330 330 341 348 354 5 356 11 41 56 89 76 8 73 103 115 66 7 299 287 307 329 333 331 337 12 20 341 63 63 37 25 173 93 8 98 291 145 108 133 106 45 100 41 52 113 106 99 100 98 98 83 91 99 98 98 83 87 89 125 109 55 273 301 280 289 311 305 143 142 227 231 230 213 224
2 359 355 351 346 345 342 342 356 359 359 356 340 330 327 344 344 355 8 28 32 53 69 60 73 83 43 81 78 73 262 286 311 330 329 335 343 1 17 17 16 41 53 10 42 70 72 106 107 101 113 78 99 54 96 80 142 136 111 109 111 123 106 76 106 100 99 96 132 104 105 78 309 135 343 301 268 338 348 308 319 170 216 245 249 277 340 26
359 356 353 348 344 344 344 359 16 26 26 17 6 353 345 342 344 357 360 18 57 54 74 79 64 68 67 54 75 93 289 7 334 334 332 350 8 20 4 0 6 51 67 46 50 45 112 116 135 133 51 119 101 47 73 116 127 112 113 89 72 71 68 96 98 122 115 63 118 105 98 77 360 63 184 259 288 358 4 313 311 282 253 280 332 24 64 74
358 355 351 345 343 343 349 6 22 33 36 32 23 16 359 340 350 354 0 340 9 29 318 244 57 115 76 65 59 67 277 307 322 323 343 8 347 316 7 18 35 56 66 73 47 12 201 136 98 71 135 196 72 104 73 120 111 131 118 96 107 90 64 10 135 201 128 155 192 126 65 29 355 68 274 259 298 2 340 295 285 279 321 38 73 72 78 106
358 354 352 347 348 350 352 359 3 9 17 19 18 16 7 351 357 358 354 6 353 52 42 76 146 51 77 54 16 251 290 292 337 349 8 357 329 176 101 43 38 47 66 81 59 16 70 61 95 88 88 87 140 109 168 114 114 101 47 111 87 24 50 351 352 24 75 208 174 172 44 295 284 262 276 278 338 347 3 301 319 332 81 113 104 98 61 268
359 356 355 353 350 349 343 343 344 343 352 353 357 7 10 3 1 1 13 42 14 73 75 44 69 52 77 162 227 241 297 198 348 20 354 341 17 333 3 6 35 44 25 85 69 43 61 65 83 104 104 90 97 102 96 107 32 105 185 57 62 65 43 325 33 306 109 53 127 112 128 282 273 281 271 283 33 337 278 287 23 74 96 118 101 147 148 337
1 359 354 354 349 347 347 349 346 345 337 338 341 355 13 21 25 24 14 32 14 34 99 92 57 75 49 66 269 296 339 77 19 358 347 7 6 350 350 347 16 18 68 51 60 34 44 64 67 55 64 8 90 88 67 47 19 36 37 347 348 82 259 297 294 36 163 14 30 79 75 222 250 264 268 270 59 20 238 314 113 124 146 178 191 160 162 194
360 357 353 350 344 338 340 341 334 334 332 333 330 341 22 33 39 41 41 75 350 15 87 52 1 89 101 55 328 355 40 27 338 319 321 42 17 10 289 273 304 31 41 28 47 45 26 61 66 81 55 14 52 81 64 30 351 20 91 115 46 52 151 360 27 18 304 160 13 69 179 266 305 257 277 285 23 8 148 278 262 163 152 180 192 198 215 273
356 355 351 346 342 333 336 321 324 316 315 306 307 300 27 47 47 62 64 37 11 350 65 30 15 97 67 250 341 29 352 300 311 337 340 45 43 322 348 35 16 352 8 47 30 44 4 53 295 38 41 84 299 93 67 34 10 358 29 104 194 130 230 81 305 8 27 94 6 1 102 218 233 279 275 299 9 45 142 226 252 259 200 195 216 224 224 248
353 352 350 343 331 338 332 325 316 315 300 277 254 307 304 24 48 37 3 10 23 72 90 111 123 53 50 16 30 312 314 294 340 306 249 317 48 3 47 31 353 35 44 10 6 41 338 49 28 131 38 16 23 24 97 156 184 146 68 83 51 26 95 170 99 314 45 11 96 38 73 212 256 277 283 261 15 135 228 204 213 213 200 216 211 205 235 252
349 347 345 336 330 332 323 324 319 314 299 279 228 239 307 325 30 57 29 348 42 357 25 345 12 75 147 310 279 284 296 267 286 18 337 1 330 61 44 72 48 54 359 55 335 45 355 80 50 41 14 358 2 23 80 152 121 357 170 150 119 108 12 62 277 282 114 74 58 96 152 217 259 264 274 291 278 197 253 282 276 256 253 264 238 233 241 249
347 344 338 332 320 317 325 326 328 324 287 78 36 58 16 19 14 6 350 39 59 84 139 206 60 94 24 352 344 281 263 349 51 344 3 8 350 3 42 49 34 60 56 40 320 29 343 68 58 27 319 305 299 289 238 240 135 78 89 89 107 108 339 301 303 272 113 69 15 148 153 203 235 234 244 246 305 299 304 277 273 270 254 248 250 237 247 258
346 342 336 327 324 328 334 339 346 358 85 96 89 65 93 148 84 55 333 85 129 51 88 62 88 89 91 269 301 360 26 328 59 7 1 276 99 57 341 23 14 54 11 311 109 348 54 73 13 302 279 284 307 323 117 76 88 112 102 95 56 68 89 251 289 335 331 128 318 29 122 247 237 251 251 268 323 266 252 256 262 247 252 254 239 249 249 243
343 339 335 323 334 334 331 351 7 36 61 98 75 98 116 198 113 136 125 60 15 39 46 66 217 48 321 237 272 125 140 41 18 357 342 28 348 88 327 72 57 72 322 350 16 25 51 62 323 310 277 195 41 33 55 88 96 29 109 143 83 23 252 286 301 334 335 81 271 281 194 257 260 254 266 237 216 238 221 201 209 199 238 241 247 253 270 298
344 337 336 329 337 332 329 336 32 51 35 39 63 78 92 194 323 252 98 122 74 338 48 21 31 25 10 299 342 141 57 42 316 347 343 14 20 56 352 54 58 87 38 26 121 94 62 355 332 333 37 85 40 37 48 70 54 56 32 56 117 259 62 311 294 347 346 74 238 198 107 296 302 288 272 259 221 255 248 219 236 198 219 238 238 227 249 267
340 339 328 342 336 326 322 339 315 40 33 81 87 100 180 51 32 75 66 87 121 340 46 315 108 113 44 23 339 38 60 350 76 341 340 47 69 196 71 83 72 53 56 45 74 85 118 277 318 50 43 76 82 37 39 55 60 11 79 91 85 41 43 158 283 319 307 27 83 73 40 326 302 295 307 291 294 296 303 321 285 275 244 258 294 297 239 246
341 339 340 344 340 329 308 36 38 56 166 33 54 250 262 96 73 74 97 18 25 37 185 72 130 48 302 271 351 79 290 74 76 232 287 51 357 41 84 137 90 16 156 195 75 71 39 350 36 44 38 38 71 46 30 78 67 347 350 126 149 154 343 336 331 28 18 335 317 115 25 296 280 265 256 273 330 288 314 344 283 267 291 308 295 275 286 273
345 344 340 344 345 336 227 53 337 150 68 48 195 308 270 5 67 8 93 74 60 293 9 6 185 358 177 350 15 338 46 58 285 307 23 342 193 123 67 29 88 161 214 86 97 114 107 352 56 85 80 50 67 102 299 129 147 86 320 138 134 144 72 34 359 56 348 85 354 61 134 268 328 286 262 281 330 285 308 291 271 289 284 288 268 271 268 271
347 344 346 347 348 338 54 189 178 131 62 302 176 286 317 17 118 53 46 4 50 314 32 266 68 354 81 297 233 16 62 292 319 4 22 354 38 353 97 322 26 53 116 146 39 9 30 2 29 32 47 60 72 41 310 117 98 55 236 120 94 59 54 27 87 115 234 270 273 54 106 173 304 287 252 280 299 292 317 326 327 315 285 260 263 264 258 259
347 346 349 348 8 44 158 122 93 61 169 203 14 29 11 69 93 35 76 64 344 350 22 318 42 336 70 320 43 84 159 300 32 334 61 305 70 18 79 53 99 319 306 73 102 266 80 350 19 11 41 49 58 216 301 125 109 191 219 193 82 107 147 96 77 41 191 33 292 331 355 11 269 263 312 343 275 299 295 277 282 299 304 286 273 268 256 243
346 345 349 348 13 52 57 95 108 120 225 243 12 31 54 53 92 107 122 101 255 76 192 88 258 23 337 2 33 17 344 32 113 291 323 2 28 144 69 66 138 97 54 130 140 205 347 124 253 133 84 19 261 276 240 92 73 244 179 90 80 94 75 86 64 46 337 59 295 296 22 159 284 276 328 331 251 270 255 248 240 243 256 269 266 274 271 275
351 347 351 350 12 14 4 42 47 196 329 3 9 5 87 64 34 36 19 56 303 293 27 269 55 299 31 51 335 3 43 340 72 315 30 80 322 25 58 128 99 60 56 33 67 170 194 313 162 88 70 256 255 264 236 270 103 137 83 72 2 32 37 23 62 78 51 14 258 234 353 129 286 262 213 168 219 195 232 291 275 285 290 271 258 252 265 270
356 355 359 9 73 188 54 42 317 250 335 13 11 68 86 39 102 102 81 213 53 293 12 23 321 16 28 46 359 345 48 1 353 32 359 8 2 41 15 86 37 57 56 22 58 339 7 353 52 262 69 338 109 31 16 30 31 111 70 104 82 345 6 35 347 33 86 279 259 270 142 107 258 297 284 236 272 204 164 205 235 257 258 258 273 278 268 266
357 6 14 39 56 52 89 163 257 352 49 54 66 58 74 318 13 70 159 328 129 290 86 290 2 72 10 347 69 349 9 342 9 31 48 26 40 37 353 127 338 65 355 351 22 5 20 25 284 325 228 45 13 78 331 11 9 69 63 36 108 275 33 306 12 349 217 209 191 25 5 19 242 219 232 270 233 246 218 195 206 221 247 260 272 271 277 288
357 16 45 32 25 52 47 221 45 22 20 54 70 51 60 88 73 264 261 333 193 117 282 117 274 16 259 56 356 331 289 59 326 49 92 16 98 35 298 72 252 200 142 228 58 30 278 285 7 320 6 42 101 129 325 47 355 56 89 124 73 42 36 274 272 231 309 296 264 20 307 235 249 292 221 224 234 214 213 220 216 201 220 241 264 287 300 300
13 28 61 28 72 77 142 61 45 44 64 42 71 36 45 63 216 47 163 246 188 348 70 28 358 54 37 92 313 360 33 317 52 353 55 25 51 26 325 351 53 11 78 88 97 179 60 356 323 28 11 359 52 79 144 243 351 225 218 133 159 141 156 237 238 286 235 238 280 283 44 238 4 244 255 225 266 301 278 275 264 260 254 265 272 277 285 288
57 69 112 36 43 21 32 12 44 63 80 62 53 83 96 201 208 173 229 237 270 336 112 304 54 65 357 24 317 333 151 333 44 53 21 63 359 49 349 325 339 92 327 81 288 72 77 214 293 283 238 47 21 320 126 96 336 265 177 101 57 225 150 141 206 162 280 335 336 232 209 179 186 254 284 243 316 314 335 312 333 298 293 331 329 307 287 284
83 336 75 26 40 323 7 10 36 51 82 61 74 45 83 175 158 145 132 159 65 143 188 41 77 62 325 333 334 58 308 114 338 79 343 66 210 68 273 219 351 15 63 116 174 110 21 30 277 317 34 76 322 122 5 173 115 220 56 90 171 148 97 92 67 64 81 52 254 205 314 300 300 338 311 355 352 297 332 305 301 278 286 330 297 277 272 264
29 346 39 341 16 319 315 34 49 77 61 88 89 84 192 302 196 165 339 127 174 142 72 121 311 103 207 262 279 338 308 36 298 92 349 174 358 300 339 308 168 10 83 133 4 169 146 231 307 37 6 11 296 149 242 200 206 22 56 218 110 112 122 126 175 335 61 120 263 32 260 308 27 299 320 328 317 283 296 292 290 299 304 299 266 267 269 269
58 57 132 46 314 321 31 354 61 49 79 78 60 131 296 92 360 148 210 18 77 36 97 99 213 55 247 109 345 324 312 90 317 53 152 5 145 151 15 311 325 92 10 328 126 280 92 51 288 27 225 272 357 321 341 347 83 139 16 206 76 266 308 329 89 10 345 327 291 311 297 253 189 255 333 273 230 266 267 283 318 290 289 265 276 284 284 283
58 84 26 323 303 352 246 70 65 65 64 62 169 95 257 315 198 171 222 147 341 139 92 222 134 326 135 113 227 286 288 104 319 96 89 279 78 136 110 158 320 54 3 9 68 287 20 143 298 284 146 316 355 59 249 298 322 231 18 171 321 116 158 85 197 171 121 258 32 295 31 261 211 222 193 233 217 234 264 308 270 259 260 268 265 268 275 286
30 34 324 276 308 32 30 69 62 47 60 97 183 107 189 111 245 257 219 184 291 96 212 123 198 110 27 184 165 132 345 88 114 266 106 294 103 10 142 13 180 312 343 359 127 315 162 198 220 280 304 355 250 6 157 149 11 330 25 335 344 30 217 112 14 96 171 173 177 228 329 282 265 212 170 206 211 218 203 236 258 266 270 263 255 260 269 268
43 104 266 343 331 318 36 45 44 33 87 191 85 142 20 197 188 315 278 255 147 315 171 160 163 129 189 114 315 315 62 62 39 87 138 305 132 255 62 127 164 319 317 18 50 356 73 17 225 312 15 360 214 213 163 162 154 161 155 245 170 93 18 314 275 8 56 86 217 125 262 272 273 181 196 183 220 209 226 210 250 268 272 270 272 266 248 264
84 41 280 330 325 60 79 52 22 76 94 92 80 146 100 111 71 324 18 45 119 191 340 105 45 117 105 82 162 151 115 45 324 84 291 155 321 100 187 94 170 201 90 145 360 263 119 152 93 264 199 219 255 169 90 120 119 168 156 284 102 104 99 88 4 281 3 273 102 149 135 274 243 211 213 209 203 217 241 189 238 270 273 276 271 267 272 242
51 160 266 24 326 77 65 71 354 43 65 228 293 358 355 38 121 230 113 329 359 112 13 56 188 86 247 156 184 87 142 100 176 303 269 270 254 203 222 125 230 99 113 330 30 285 105 67 20 292 312 305 338 243 50 39 117 21 266 206 61 276 168 169 181 196 136 277 82 8 230 252 283 224 227 236 245 249 258 217 248 276 282 277 271 277 273 284
158 269 334 315 39 99 81 134 104 42 76 335 73 100 348 169 115 30 45 315 123 356 137 170 5 302 143 98 104 115 246 77 270 107 332 156 50 14 355 5 335 205 152 222 136 242 57 311 116 342 358 335 340 352 354 326 82 173 219 210 172 93 74 158 117 84 9 223 177 129 236 281 270 332 297 319 356 326 300 291 205 276 285 270 268 266 264 266
104 299 258 304 4 59 108 171 128 143 170 134 120 95 34 17 107 172 168 180 46 163 104 12 203 149 59 112 88 95 360 131 173 299 94 116 182 329 312 27 318 161 282 251 332 213 110 210 100 45 111 18 314 318 284 298 244 223 180 143 199 140 146 147 253 29 210 278 126 179 254 253 269 312 314 320 338 314 291 267 275 227 249 270 273 263 265 270
41 125 308 348 14 39 61 42 100 130 138 149 79 225 106 90 8 305 151 360 176 96 55 138 15 88 101 78 57 40 52 349 122 206 135 235 269 325 244 323 78 140 245 227 41 120 143 27 154 157 153 191 202 210 260 102 51 196 242 170 199 168 121 104 101 107 211 204 195 237 204 299 304 288 257 283 298 277 290 305 305 303 284 259 248 262 267 265
160 78 349 360 341 48 80 22 81 83 166 175 111 175 146 143 209 350 169 8 242 151 55 53 193 130 239 88 156 100 270 333 7 93 225 167 252 231 297 234 328 262 300 166 49 82 67 300 263 158 224 235 200 215 223 190 226 227 181 233 200 177 175 148 168 223 171 83 289 250 270 249 263 283 294 299 299 292 288 283 292 287 277 280 280 285 288 286
76 249 94 214 129 242 61 360 87 90 72 78 109 64 150 129 166 151 333 285 102 315 114 339 85 294 178 176 142 113 196 68 350 184 109 241 82 340 6 310 100 334 1 306 330 135 148 180 243 130 270 245 246 242 203 254 222 220 201 197 195 198 164 192 224 205 149 192 237 262 145 214 267 278 286 285 272 270 275 280 276 272 285 288 292 291 288 279
99 141 134 299 145 270 90 167 100 114 89 105 111 95 165 160 186 213 162 100 25 295 195 166 243 223 199 198 114 134 175 99 289 270 183 168 190 129 270 337 225 32 68 18 9 157 95 273 202 171 272 289 290 277 211 199 247 268 234 223 219 181 206 210 229 200 195 237 255 286 302 273 272 272 278 278 283 267 274 280 291 295 275 275 285 282 268 272
229 127 237 11 85 119 229 71 93 73 78 75 111 231 159 179 170 205 304 129 147 263 144 190 238 157 150 130 116 129 215 178 177 185 209 123 97 184 221 196 165 9 56 140 321 322 107 274 107 143 345 295 292 296 127 195 185 253 247 233 218 218 228 230 248 244 233 281 270 278 283 284 278 262 253 268 286 304 311 286 261 259 280 285 282 275 272 271
194 190 149 114 59 326 45 30 85 109 107 319 94 207 119 193 201 171 159 180 167 179 178 211 168 117 62 105 99 258 267 180 154 304 175 146 155 211 135 272 124 142 71 67 18 319 23 255 50 71 355 305 297 45 272 4 253 251 280 246 214 191 226 215 207 212 171 227 205 8 278 257 272 340 255 269 304 286 257 282 304 298 290 286 272 269 270 269
77 22 86 101 96 275 135 339 355 83 274 227 146 193 172 217 183 150 86 184 154 341 195 157 169 108 64 126 212 231 210 154 138 64 118 80 100 85 54 110 110 153 171 145 251 128 152 125 132 62 335 259 262 31 304 319 325 315 275 231 193 204 201 307 269 231 213 165 193 232 236 223 238 268 312 286 257 277 287 264 279 292 277 252 252 262 267 269